Weather History for PASC - March, 2013

Change the Weather History Date:

Wednesday, March 20, 2013

  Actual Average Record
Temperature  
Mean Temperature -4 °F -  
Max Temperature 0 °F -3 °F 19 °F (2004)
Min Temperature -9 °F -16 °F -48 °F (1987)
Degree Days  
Heating Degree Days 69    
Moisture  
Dew Point -10 °F    
Average Humidity 79    
Maximum Humidity 84    
Minimum Humidity 75    
Precipitation  
Precipitation 0.00 in - - ()
Sea Level Pressure  
Sea Level Pressure 29.89 in    
Wind  
Wind Speed 17 mph (SW)    
Max Wind Speed 23 mph    
Max Gust Speed -    
Visibility 3 miles    
Events Snow    
Averages and records for this station are not official NWS values.
T = Trace of Precipitation, MM = Missing Value Source: NWS Daily Summary

Daily Weather History Graph

Daily Weather History Graph

Search for Another Location

Airport or City:

Trip Planner

Search our weather history database for the weather conditions in past years. The results will help you decide how hot, cold, wet, or windy it might be!

Date:

Astronomy

Mar. 20, 2013 Rise Set
Actual Time 7:50 AM AKDT 8:14 PM AKDT
Civil Twilight 6:48 AM AKDT 9:16 PM AKDT
Nautical Twilight 5:29 AM AKDT 10:37 PM AKDT
Astronomical Twilight 3:37 AM AKDT 12:34 AM AKDT
Moon 10:07 AM AKDT (3/20) 7:30 AM AKDT (3/20)
Length of Visible Light 14h 27m
Length of Day
12h 23m
First Quarter, 60% of the Moon is Illuminated
Mar 20
First Quarter
Mar 27
Full
Apr 2
Last Quarter
Apr 10
New
Apr 18
First Quarter

Hourly Weather History & Observations

Time (AKDT) Temp. Windchill Dew Point Humidity Pressure Visibility Wind Dir Wind Speed Gust Speed Precip Events Conditions
12:35 AM -5.8 °F -31.0 °F -9.4 °F 84% 29.99 in 1.0 mi WSW 23.0 mph - 0.00 in Snow Light Snow
12:53 AM -6.0 °F -31.2 °F -11.0 °F 79% 29.99 in 1.2 mi WSW 23.0 mph - 0.00 in Snow Light Snow
1:53 AM -7.1 °F -32.1 °F -11.0 °F 83% 29.96 in 1.5 mi WSW 21.9 mph - 0.00 in Snow Light Snow
2:30 AM -7.6 °F -31.7 °F -11.2 °F 84% 29.94 in 2.5 mi SW 19.6 mph - 0.00 in Snow Light Snow
2:38 AM -7.6 °F -32.3 °F -11.2 °F 84% 29.94 in 1.8 mi WSW 20.7 mph - 0.00 in Snow Light Snow
2:53 AM -6.0 °F -29.6 °F -11.0 °F 79% 29.94 in 2.0 mi SW 19.6 mph - 0.00 in Snow Light Snow
3:53 AM -6.0 °F -30.2 °F -11.0 °F 79% 29.91 in 2.0 mi SW 20.7 mph - 0.00 in Snow Light Snow
4:53 AM -6.0 °F -29.6 °F -11.0 °F 79% 29.89 in 2.5 mi WSW 19.6 mph - 0.00 in Snow Light Snow
5:09 AM -5.8 °F -27.5 °F -11.2 °F 77% 29.88 in 1.8 mi WSW 16.1 mph - 0.00 in Snow Light Snow
5:27 AM -5.8 °F -26.8 °F -9.4 °F 84% 29.87 in 1.2 mi WSW 15.0 mph - 0.00 in Snow Light Snow
5:36 AM -5.8 °F -26.8 °F -9.4 °F 84% 29.87 in 2.0 mi West 15.0 mph - 0.00 in Snow Light Snow
5:53 AM -6.0 °F -27.0 °F -11.9 °F 75% 29.88 in 2.5 mi West 15.0 mph - 0.00 in Snow Light Snow
6:00 AM -7.6 °F -30.5 °F -11.2 °F 84% 29.87 in 5.0 mi West 17.3 mph - 0.00 in Snow Light Snow
6:20 AM -7.6 °F -30.5 °F -13.0 °F 77% 29.87 in 2.5 mi West 17.3 mph - 0.00 in Snow Light Snow
6:53 AM -8.0 °F -30.3 °F -13.0 °F 79% 29.88 in 3.0 mi WSW 16.1 mph - 0.00 in Snow Light Snow
7:53 AM -8.0 °F -28.8 °F -13.0 °F 79% 29.86 in 4.0 mi SW 13.8 mph - 0.00 in Snow Light Snow
8:53 AM -7.1 °F -25.9 °F -11.9 °F 79% 29.85 in 3.0 mi SSW 11.5 mph - 0.00 in Snow Light Snow
9:53 AM -6.0 °F -24.6 °F -11.9 °F 75% 29.83 in 3.0 mi SSW 11.5 mph - 0.00 in Snow Light Snow
10:53 AM -5.1 °F -25.9 °F -9.9 °F 80% 29.83 in 4.0 mi SW 15.0 mph - 0.00 in Snow Light Snow
11:08 AM -4.0 °F -25.2 °F -9.4 °F 78% 29.82 in 4.0 mi SW 16.1 mph - 0.00 in Snow Light Snow
11:53 AM -4.0 °F -25.2 °F -9.0 °F 79% 29.82 in 3.0 mi SW 16.1 mph - 0.00 in Snow Light Snow
12:53 PM -2.9 °F -23.8 °F -9.0 °F 75% 29.83 in 4.0 mi SW 16.1 mph - 0.00 in Snow Blowing Snow
1:53 PM -2.9 °F -20.8 °F -8.0 °F 79% 29.84 in 7.0 mi SW 11.5 mph - N/A   Overcast
2:53 PM -2.0 °F -19.6 °F -7.1 °F 79% 29.84 in 3.0 mi SW 11.5 mph - 0.00 in Snow Light Snow
3:21 PM -2.2 °F -19.9 °F -7.6 °F 78% 29.83 in 3.0 mi SSW 11.5 mph - 0.00 in Snow Blowing Snow
3:53 PM -2.0 °F -19.6 °F -7.1 °F 79% 29.85 in 4.0 mi SSW 11.5 mph - 0.00 in Snow Blowing Snow
4:53 PM -0.9 °F -15.3 °F -7.1 °F 75% 29.86 in 4.0 mi SSW 8.1 mph - N/A Snow Blowing Snow
5:53 PM -0.9 °F -15.3 °F -6.0 °F 79% 29.87 in 4.0 mi South 8.1 mph - N/A   Overcast
6:53 PM -0.9 °F -16.4 °F -6.0 °F 79% 29.88 in 4.0 mi SE 9.2 mph - N/A   Overcast
7:06 PM -0.4 °F -13.4 °F -5.8 °F 78% 29.88 in 3.0 mi SE 6.9 mph - N/A   Overcast
7:53 PM -2.0 °F -17.7 °F -7.1 °F 79% 29.90 in 3.0 mi SE 9.2 mph - N/A   Overcast
8:03 PM -2.2 °F -18.0 °F -7.6 °F 78% 29.89 in 2.0 mi SE 9.2 mph - N/A   Overcast
8:53 PM -2.9 °F -18.8 °F -8.0 °F 79% 29.91 in 4.0 mi SSE 9.2 mph - N/A   Overcast
9:53 PM -5.1 °F -21.5 °F -9.0 °F 83% 29.93 in 6.0 mi South 9.2 mph - N/A   Overcast
10:53 PM -7.1 °F -22.8 °F -11.9 °F 79% 29.95 in 9.0 mi SSW 8.1 mph - N/A   Overcast
11:53 PM -9.0 °F -23.8 °F -14.1 °F 79% 29.97 in 9.0 mi SW 6.9 mph - N/A   Overcast